Bookmark and Share
Track history (hours):
 

Sandra Hugh

More information available from US FCC via Universal Licensing System and Coast Guard Vessel Documentation Center.

Last reported at 2014-Apr-21 02:25 UTC. Time now 2014-Apr-21 03:07 UTC.
Position N 38°03' W 122°05'.

Length 24 m; draft 4.9 m.

Type: Tug. MMSI: 367305920.

NotesDate/timePositionNaut miles runAvg speedWind from/ knotsBaromVisibWave heightAir tempDewpointWater temp
2014-Apr-21 02:25N 38°03' W 122°05'2 0.0
2014-Apr-19 07:21N 38°03' W 122°08'12 1.9
2014-Apr-19 01:18N 38°03' W 121°53'3 0.9
2014-Apr-18 22:31N 38°02' W 121°50'5 4.9
2014-Apr-18 21:30N 38°03' W 121°56'9 0.9
2014-Apr-18 11:09N 38°02' W 122°08'0 0.1
2014-Apr-18 06:30N 38°03' W 122°08'0 0.0
2014-Apr-17 11:30N 38°03' W 122°08'0 0.0
2014-Apr-17 05:29N 38°03' W 122°08'0 0.0
2014-Apr-17 03:25N 38°03' W 122°08'0 0.0
2014-Apr-17 02:33N 38°03' W 122°08'5 5.3
2014-Apr-17 01:33N 38°04' W 122°15'9 8.7
2014-Apr-17 00:33N 37°60' W 122°25'6 5.8
2014-Apr-16 23:34N 37°55' W 122°22'0 0.2
2014-Apr-16 22:33N 37°54' W 122°22'5 4.6
2014-Apr-16 21:32N 37°58' W 122°26'2 2.1
2014-Apr-16 20:33N 37°56' W 122°25'0 0.4
2014-Apr-16 19:33N 37°56' W 122°26'2 1.5
2014-Apr-16 18:27N 37°58' W 122°26'1 0.9
2014-Apr-16 17:30N 37°57' W 122°26'1 1.4
2014-Apr-16 16:33N 37°56' W 122°25'0 0.1
2014-Apr-16 15:33N 37°56' W 122°25'7 6.6
2014-Apr-16 14:34N 37°49' W 122°21'2 1.6
2014-Apr-16 13:34N 37°49' W 122°20'3 2.5
2014-Apr-16 12:33N 37°49' W 122°23'3 3.3
2014-Apr-16 11:33N 37°49' W 122°19'0 0.0
2014-Apr-16 10:33N 37°49' W 122°19'0 0.0
2014-Apr-16 09:33N 37°49' W 122°19'0 0.0
2014-Apr-16 08:34N 37°49' W 122°19'0 0.0
2014-Apr-16 07:33N 37°49' W 122°19'0 0.0
2014-Apr-16 06:33N 37°49' W 122°19'0 0.0
2014-Apr-16 05:34N 37°49' W 122°19'0 0.0
2014-Apr-16 04:33N 37°49' W 122°19'0 0.0
2014-Apr-16 03:34N 37°49' W 122°19'0 0.0
2014-Apr-16 02:34N 37°49' W 122°19'0 0.0
2014-Apr-16 01:33N 37°49' W 122°19'1 1.3
2014-Apr-16 00:33N 37°49' W 122°20'2 2.4
2014-Apr-15 23:33N 37°48' W 122°17'4 3.9
2014-Apr-15 22:33N 37°48' W 122°22'3 2.6
2014-Apr-15 21:33N 37°49' W 122°19'0 0.3
2014-Apr-15 20:34N 37°49' W 122°20'1 1.0
2014-Apr-15 19:33N 37°48' W 122°21'2 1.9
2014-Apr-15 18:33N 37°49' W 122°19'0 0.0
2014-Apr-15 17:33N 37°49' W 122°19'0 0.0
2014-Apr-15 16:33N 37°49' W 122°19'0 0.0
2014-Apr-15 15:34N 37°49' W 122°19'0 0.0
2014-Apr-15 14:34N 37°49' W 122°19'0 0.0
2014-Apr-15 12:34N 37°49' W 122°19'0 0.0
2014-Apr-15 11:34N 37°49' W 122°19'0 0.0
2014-Apr-15 10:34N 37°49' W 122°19'0 0.0
2014-Apr-15 09:34N 37°49' W 122°19'0 0.4
2014-Apr-15 08:34N 37°49' W 122°19'8 8.2
2014-Apr-15 07:34N 37°49' W 122°29'3 3.4
2014-Apr-15 06:34N 37°51' W 122°26'9 9.1
2014-Apr-15 05:34N 37°60' W 122°25'16 7.9
2014-Apr-15 03:34N 38°03' W 122°05'4 0.2
2014-Apr-14 08:33N 38°03' W 122°11'4 2.0
2014-Apr-14 06:33N 38°04' W 122°16'15 1.8
2014-Apr-13 22:33N 37°49' W 122°19'0 0.0
2014-Apr-13 21:33N 37°49' W 122°19'0 0.0
2014-Apr-13 20:34N 37°49' W 122°19'0 0.0
2014-Apr-13 19:33N 37°49' W 122°19'0 0.0
2014-Apr-13 18:33N 37°49' W 122°19'0 0.0
2014-Apr-13 17:34N 37°49' W 122°19'0 0.0
2014-Apr-13 16:33N 37°49' W 122°19'0 0.0
2014-Apr-13 15:33N 37°49' W 122°19'1 1.3
2014-Apr-13 14:33N 37°49' W 122°20'1 1.1
2014-Apr-13 13:34N 37°48' W 122°19'1 1.4
2014-Apr-13 12:34N 37°48' W 122°18'4 3.6
2014-Apr-13 11:34N 37°48' W 122°22'1 1.2
2014-Apr-13 10:33N 37°48' W 122°21'0 0.0
2014-Apr-13 09:33N 37°48' W 122°21'0 0.0
2014-Apr-13 08:33N 37°48' W 122°21'1111.5
2014-Apr-13 07:33N 37°37' W 122°17'8 7.6
2014-Apr-13 06:33N 37°30' W 122°13'0 0.1
2014-Apr-13 05:12N 37°31' W 122°13'0 0.0
2014-Apr-13 04:33N 37°31' W 122°13'0 0.0
2014-Apr-13 03:31N 37°31' W 122°13'7 7.5
2014-Apr-13 02:33N 37°37' W 122°17'1111.1
2014-Apr-13 01:34N 37°48' W 122°21'2 2.5
2014-Apr-13 00:33N 37°49' W 122°19'0 0.0
2014-Apr-12 23:33N 37°49' W 122°19'0 0.0
2014-Apr-12 22:34N 37°49' W 122°19'0 0.0
2014-Apr-12 21:34N 37°49' W 122°19'0 0.0
2014-Apr-12 20:34N 37°49' W 122°19'0 0.0
2014-Apr-12 19:34N 37°49' W 122°19'0 0.0
2014-Apr-12 18:34N 37°49' W 122°19'0 0.0
2014-Apr-12 17:34N 37°49' W 122°19'0 0.0
2014-Apr-12 16:34N 37°49' W 122°19'0 0.0
2014-Apr-12 15:34N 37°49' W 122°19'0 0.0
2014-Apr-12 14:34N 37°49' W 122°19'0 0.0
2014-Apr-12 13:34N 37°49' W 122°19'1 0.8
2014-Apr-12 12:33N 37°49' W 122°20'1 0.8
2014-Apr-12 11:34N 37°49' W 122°19'0 0.0
2014-Apr-12 10:34N 37°49' W 122°19'0 0.0
2014-Apr-12 09:33N 37°49' W 122°19'0 0.0
2014-Apr-12 08:34N 37°49' W 122°19'0 0.0
2014-Apr-12 07:34N 37°49' W 122°19'0 0.0
2014-Apr-12 06:33N 37°49' W 122°19'0 0.0
2014-Apr-12 05:33N 37°49' W 122°19'0 0.0
2014-Apr-12 04:34N 37°49' W 122°19'0 0.0
2014-Apr-12 03:34N 37°49' W 122°19'0 0.0
2014-Apr-12 02:33N 37°49' W 122°19'0 0.0
2014-Apr-12 01:33N 37°49' W 122°19'2 1.8
2014-Apr-12 00:34N 37°48' W 122°18'0 0.4
2014-Apr-11 23:34N 37°48' W 122°19'9 8.8
2014-Apr-11 22:33N 37°55' W 122°25'1010.2
2014-Apr-11 21:33N 38°03' W 122°18'8 0.7
2014-Apr-11 09:23N 38°02' W 122°07'1 0.6
2014-Apr-11 08:24N 38°03' W 122°08'0 0.0
2014-Apr-11 07:17N 38°03' W 122°08'0 0.0
2014-Apr-11 06:33N 38°03' W 122°08'0 0.0
2014-Apr-11 05:14N 38°03' W 122°08'0 0.0
2014-Apr-11 04:33N 38°03' W 122°08'0 0.0
2014-Apr-11 03:33N 38°03' W 122°08'  

Dump ship's entire track history

sailing weather and tide predictions

Sandra Hugh — WDD9019 — position and weather